Weather History for Dunkirk, NY

Change the Weather History Date:

Tuesday, March 12, 2013

  Actual Average Record
Temperature  
Mean Temperature 40 °F -  
Max Temperature 43 °F 40 °F 72 °F (1990)
Min Temperature 33 °F 24 °F -7 °F (1960)
Degree Days  
Heating Degree Days 26    
Moisture  
Dew Point 31 °F    
Average Humidity 81    
Maximum Humidity 93    
Minimum Humidity 73    
Precipitation  
Precipitation 0.06 in - - ()
Sea Level Pressure  
Sea Level Pressure 29.85 in    
Wind  
Wind Speed 13 mph (WSW)    
Max Wind Speed 18 mph    
Max Gust Speed 32 mph    
Visibility 10 miles    
Events Rain , Snow    
Averages and records for this station are not official NWS values.
T = Trace of Precipitation, MM = Missing Value Source: NWS Daily Summary

Daily Weather History Graph

Daily Weather History Graph

Search for Another Location

Airport:

Trip Planner

Search our weather history database for the weather conditions in past years. The results will help you decide how hot, cold, wet, or windy it might be!

Date:

Astronomy

Mar. 12, 2013 Rise Set
Actual Time 7:33 AM EDT 7:20 PM EDT
Civil Twilight 7:05 AM EDT 7:48 PM EDT
Nautical Twilight 6:33 AM EDT 8:21 PM EDT
Astronomical Twilight 6:00 AM EDT 8:54 PM EDT
Moon 7:37 AM EDT (3/12) 8:36 PM EDT (3/12)
Length of Visible Light 12h 42m
Length of Day
11h 46m
New Moon, 1% of the Moon is Illuminated
Mar 12
New Moon
Mar 19
First Quarter
Mar 27
Full
Apr 3
Last Quarter
Apr 10
New

Hourly Weather History & Observations

Time (EDT) Temp. Windchill Dew Point Humidity Pressure Visibility Wind Dir Wind Speed Gust Speed Precip Events Conditions
12:01 AM 46.4 °F 43.5 °F 44.6 °F 93% 29.73 in 7.0 mi SW 5.8 mph - 0.01 in Rain Light Rain
12:10 AM 46.4 °F 41.9 °F 44.6 °F 93% 29.72 in 6.0 mi WSW 9.2 mph - 0.02 in Rain Rain
12:30 AM 44.6 °F 38.4 °F 41.0 °F 87% 29.73 in 10.0 mi WSW 12.7 mph 23.0 mph 0.02 in Rain Light Rain
12:53 AM 43.0 °F 36.4 °F 39.9 °F 89% 29.75 in 8.0 mi WSW 12.7 mph 24.2 mph 0.03 in Rain Rain
1:53 AM 42.1 °F 35.2 °F 37.0 °F 82% 29.76 in 9.0 mi WSW 12.7 mph 28.8 mph 0.01 in Rain Light Rain
2:07 AM 41.0 °F 32.2 °F 37.4 °F 87% 29.77 in 10.0 mi WSW 18.4 mph 24.2 mph 0.00 in Rain Light Rain
2:53 AM 37.0 °F 27.4 °F 33.1 °F 86% 29.78 in 10.0 mi SW 17.3 mph 25.3 mph 0.00 in Rain Light Rain
3:36 AM 37.4 °F 27.5 °F 33.8 °F 87% 29.78 in 10.0 mi SW 18.4 mph 26.5 mph 0.02 in   Overcast
3:53 AM 37.0 °F 27.7 °F 32.0 °F 82% 29.78 in 10.0 mi SW 16.1 mph 23.0 mph 0.02 in   Overcast
4:01 AM 37.4 °F 28.5 °F 32.0 °F 81% 29.79 in 10.0 mi SW 15.0 mph - N/A   Overcast
4:53 AM 37.9 °F 28.9 °F 30.9 °F 76% 29.79 in 10.0 mi SW 16.1 mph 28.8 mph N/A   Overcast
5:16 AM 37.4 °F 28.2 °F 30.2 °F 75% 29.79 in 10.0 mi SW 16.1 mph 23.0 mph N/A   Overcast
5:53 AM 37.9 °F 29.6 °F 30.0 °F 73% 29.81 in 10.0 mi WSW 13.8 mph 25.3 mph N/A   Overcast
6:53 AM 37.0 °F 28.1 °F 30.0 °F 76% 29.83 in 10.0 mi SW 15.0 mph 21.9 mph N/A   Overcast
7:53 AM 37.0 °F 28.1 °F 28.9 °F 73% 29.84 in 10.0 mi SW 15.0 mph 23.0 mph N/A   Overcast
8:15 AM 37.4 °F 28.5 °F 30.2 °F 75% 29.83 in 10.0 mi WSW 15.0 mph 21.9 mph N/A   Overcast
8:53 AM 36.0 °F 28.0 °F 30.0 °F 79% 29.84 in 10.0 mi WSW 11.5 mph 21.9 mph N/A   Overcast
9:39 AM 37.4 °F 32.1 °F 30.2 °F 75% 29.84 in 10.0 mi WSW 6.9 mph - N/A   Overcast
9:53 AM 37.0 °F 31.0 °F 30.9 °F 79% 29.85 in 10.0 mi WSW 8.1 mph - N/A   Overcast
10:53 AM 36.0 °F 27.1 °F 30.0 °F 79% 29.87 in 10.0 mi WSW 13.8 mph 26.5 mph N/A   Overcast
11:48 AM 35.6 °F 26.2 °F 30.2 °F 81% 29.86 in 10.0 mi WSW 15.0 mph 24.2 mph N/A   Overcast
11:53 AM 35.1 °F 25.9 °F 30.0 °F 82% 29.88 in 10.0 mi WSW 13.8 mph - N/A   Overcast
12:53 PM 35.1 °F 26.4 °F 30.0 °F 82% 29.88 in 10.0 mi WSW 12.7 mph 23.0 mph N/A   Overcast
1:13 PM 35.6 °F 25.5 °F 30.2 °F 81% 29.86 in 10.0 mi SW 17.3 mph 20.7 mph N/A   Overcast
1:53 PM 35.1 °F 25.5 °F 30.0 °F 82% 29.88 in 10.0 mi WSW 15.0 mph 25.3 mph N/A   Overcast
2:45 PM 35.6 °F 26.2 °F 28.4 °F 75% 29.86 in 10.0 mi WSW 15.0 mph 23.0 mph N/A   Overcast
2:53 PM 35.1 °F 24.8 °F 30.0 °F 82% 29.88 in 10.0 mi WSW 17.3 mph 24.2 mph N/A   Overcast
3:51 PM 33.8 °F 22.8 °F 28.4 °F 81% 29.86 in 10.0 mi WSW 18.4 mph 24.2 mph N/A   Overcast
3:53 PM 34.0 °F 24.2 °F 28.9 °F 82% 29.88 in 10.0 mi WSW 15.0 mph 24.2 mph N/A   Overcast
4:53 PM 34.0 °F 24.6 °F 28.9 °F 82% 29.91 in 10.0 mi WSW 13.8 mph 32.2 mph N/A   Overcast
5:11 PM 33.8 °F 24.8 °F 28.4 °F 81% 29.89 in 10.0 mi WSW 12.7 mph 23.0 mph N/A   Overcast
5:53 PM 34.0 °F 24.2 °F 28.9 °F 82% 29.91 in 9.0 mi WSW 15.0 mph 24.2 mph N/A   Overcast
6:04 PM 33.8 °F 23.5 °F 28.4 °F 81% 29.89 in 9.0 mi WSW 16.1 mph 24.2 mph N/A   Overcast
6:12 PM 33.8 °F 23.5 °F 28.4 °F 81% 29.89 in 8.0 mi WSW 16.1 mph 24.2 mph N/A   Overcast
6:53 PM 34.0 °F 26.0 °F 28.9 °F 82% 29.91 in 8.0 mi WSW 10.4 mph - N/A   Overcast
7:53 PM 34.0 °F 24.2 °F 28.9 °F 82% 29.93 in 9.0 mi WSW 15.0 mph 24.2 mph N/A   Overcast
8:42 PM 33.8 °F 23.9 °F 28.4 °F 81% 29.92 in 10.0 mi WSW 15.0 mph 20.7 mph N/A   Overcast
8:53 PM 33.1 °F 23.0 °F 28.0 °F 82% 29.95 in 9.0 mi SW 15.0 mph 20.7 mph N/A   Overcast
9:53 PM 33.1 °F 23.0 °F 28.0 °F 82% 29.94 in 8.0 mi SW 15.0 mph 23.0 mph 0.00 in Snow Light Snow
10:53 PM 33.1 °F 22.2 °F 27.0 °F 78% 29.95 in 10.0 mi WSW 17.3 mph 26.5 mph 0.00 in   Overcast
11:53 PM 33.1 °F 22.6 °F 28.0 °F 82% 29.95 in 8.0 mi SW 16.1 mph 20.7 mph 0.00 in Snow Light Snow